Preview of NWS' New Version of Forecast
This preview is not operational and should not be used for support decisions.

Regional Weather Roundup (RWR)

Issued by Philadelphia/Mt Holly (PHI)

                            
000
ASUS41 KPHI 181111
RWRPHI

REGIONAL WEATHER ROUNDUP
NATIONAL WEATHER SERVICE MOUNT HOLLY NJ
600 AM EST FRI JAN 18 2019

NOTE:  "FAIR" INDICATES FEW OR NO CLOUDS BELOW 12,000 FEET WITH NO
SIGNIFICANT WEATHER AND/OR OBSTRUCTIONS TO VISIBILITY.

 * = STATION DOES NOT REPORT PRECIPITATION (E.G. RAIN, SNOW, ETC.) 
        OR FOG.

NJZ015>026-181200-
SOUTHERN NEW JERSEY
  
CITY           SKY/WX    TMP DP  RH WIND       PRES   REMARKS
POMONA         CLOUDY    31  31 100 NE3       30.08F                  
WILDWOOD*      LGT RAIN  34  32  92 NE6       30.07F WCI  29          
MILLVILLE      LGT SNOW  31  29  92 NE5       30.07F FOG     WCI  26  
WRIGHTSTOWN    LGT SNOW  28  28 100 NE3       30.06F                  
MOUNT HOLLY    LGT SNOW  29  27  92 CALM      30.09F FOG              
TRENTON        LGT SNOW  29  27  92 NE3       30.08F FOG              

$$
NJZ001>014-181200-
NORTHERN NEW JERSEY
  
CITY           SKY/WX    TMP DP  RH WIND       PRES   REMARKS
SUSSEX         CLOUDY    24  21  88 NE3       30.08F                  
ANDOVER*         N/A     24  22  91 NE3       30.08S                  
MORRISTOWN     FLURRIES  27  25  93 CALM      30.10F                  
NEWARK         LGT SNOW  28  26  92 NE6       30.11F FOG     WCI  22  
TETERBORO      CLOUDY    28  25  88 N10G16    30.11F WCI  19          
CALDWELL       CLOUDY    26  25  96 CALM      30.12F                  
SOMERVILLE     CLOUDY    28  25  88 N3        30.09S                  
ALLAIRE*       LGT SNOW  31  30  96 N3        30.11S FOG              
TOMS RIVER*    LGT SNOW  30  30 100 CALM      30.10F FOG              

$$
PAZ043-044-047-054-055-060>062-066>071-181200-
EASTERN PENNSYLVANIA
  
CITY           SKY/WX    TMP DP  RH WIND       PRES   REMARKS
PHILADELPHIA   LGT SNOW  30  28  92 NE6       30.09F FOG     WCI  24  
NORTH PHILA    LGT SNOW  30  27  88 NE5       30.10F FOG     WCI  25  
BLUE BELL*     CLOUDY    28  28 100 CALM      30.10S                  
DOYLESTOWN     CLOUDY    27  24  89 CALM      30.07F                  
QUAKERTOWN*    CLOUDY    27  25  93 CALM      30.07  FOG              
PERKASIE*      CLOUDY    27  27 100 NE5       30.07F WCI  21          
POTTSTOWN      CLOUDY    26  25  96 CALM      30.09F FOG              
LANCASTER      CLOUDY    29  27  92 CALM      30.06S FOG              
COATESVILLE    LGT SNOW  28  28 100 E5        30.06S WCI  23          
READING        FLURRIES  28  28 100 NW3       30.07F                  
ALLENTOWN      LGT SNOW  28  23  81 NE5       30.08F WCI  23          
MOUNT POCONO   CLOUDY    21  21 100 SE3       29.98F                  
HAZLETON       FLURRIES N/A N/A N/A CALM      30.02R                  
LEHIGHTON      LGT SNOW  28  27  93 CALM      30.07F                  
WILKES BARRE   CLOUDY    25  23  92 CALM      30.03S                  

$$
DEZALL-MDZ008-012-015-019-020-181200-
DELAWARE AND EASTERN MARYLAND
  
CITY           SKY/WX    TMP DP  RH WIND       PRES   REMARKS
WILMINGTON     LGT SNOW  31  29  92 E5        30.08F FOG     WCI  26  
DOVER          LGT RAIN  33  33  98 NE3       30.07F                  
GEORGETOWN     CLOUDY    37  35  92 CALM      30.08S                  
EASTON         CLOUDY    34  32  93 CALM      30.11R                  
ABERDEEN       FLURRIES  30  30 100 NE6       30.09  WCI  24          
PATUXENT       CLOUDY    36  35  96 NE3       30.06                   
OCEAN CITY     CLOUDY    39  37  92 CALM      30.06F                  
WALLOPS ISLAND LGT RAIN  40  37  89 CALM      30.07S                  
SALISBURY      CLOUDY    36  35  96 CALM      30.06S                  

$$
PAZ001-021-NYZ056-072-MDZ011-DCZ001-181200-
OTHER NEARBY LOCATIONS
  
CITY           SKY/WX    TMP DP  RH WIND       PRES   REMARKS
HARRISBURG     CLOUDY    28  25  88 CALM      30.07S                  
STATE COLLEGE  LGT SNOW  27  25  93 CALM      29.98F                  
WILLIAMSPORT   FLURRIES  26  23  88 E8        30.04S WCI  18          
BINGHAMTON     LGT SNOW  22  19  89 S6        29.94F FOG     WCI  14  
NEW YORK CITY  LGT SNOW  31  28  89 MISG      30.12  FOG              
BALTIMORE      FOG       32  31  96 E6        30.07R VSB 1   WCI  26  
WASHINGTON DC  CLOUDY    34  31  88 N5        30.08S FOG     WCI  30  

$$